Regional Weather Roundup
Issued by NWS

Home | Current Version | Previous Version | Graphics & Text | Print | Product List | Glossary On
Versions: 1 2 3 4 5 6 7 8 9 10 11 12 13 14 15 16 17 18 19 20 21 22 23 24 25 26 27 28 29 30 31 32 33 34 35 36 37 38 39 40 41 42 43 44 45 46 47 48 49 50
000
ASUS43 KFSD 231202
RWRSD

WEATHER ROUNDUP FOR SOUTH DAKOTA
NATIONAL WEATHER SERVICE SIOUX FALLS SD
700 AM CDT MON APR 23 2018

NOTE: "FAIR" INDICATES FEW OR NO CLOUDS BELOW 12,000 FEET WITH NO
SIGNIFICANT WEATHER AND/OR OBSTRUCTIONS TO VISIBILITY.


SDZ001>005-009-010-012>017-231300-
NORTHWEST AND NORTH CENTRAL SOUTH DAKOTA

CITY           SKY/WX    TMP DP  RH WIND       PRES   REMARKS
BUFFALO          N/A     45  37  73 NE13      30.04S
FAITH            N/A     41  37  86 SE9       30.10S
MOBRIDGE       CLEAR     39  33  79 E6        30.12R
$$

SDZ012>016-024>037-041>051-057-063-072>074-231300-
SOUTHWEST AND SOUTH CENTRAL SOUTH DAKOTA

CITY           SKY/WX    TMP DP  RH WIND       PRES   REMARKS
RAPID CTY ARPT CLEAR     38  35  89 SE6       30.07R
PIERRE         CLEAR     35  33  92 E3        30.13S
CUSTER         CLEAR     33  29  85 NW3       30.10F
ELLSWORTH AFB  CLEAR     43  37  81 CALM      30.08R
PHILIP         CLEAR     35  33  92 CALM      30.11R
PINE RIDGE     CLEAR     41  35  79 W3        30.10S
SPEARFISH      FAIR      37  32  81 SW5       30.08S
WINNER         FAIR      42  35  76 S9        30.16R
$$

SDZ004>011-016>023-039-040-231300-
NORTHEAST SOUTH DAKOTA

CITY           SKY/WX    TMP DP  RH WIND       PRES   REMARKS
ABERDEEN       CLEAR     34  32  92 CALM      30.20R FOG
WATERTOWN      CLEAR     37  34  89 S5        30.19S
BROOKINGS      CLEAR     36  32  85 CALM      30.21S
SISSETON         N/A     33  32  96 SE5       30.19R WCI  29
$$

SDZ017-020-022-023-036>040-048>070-231300-
SOUTHEAST SOUTH DAKOTA

CITY           SKY/WX    TMP DP  RH WIND       PRES   REMARKS
SIOUX FALLS    PTCLDY    35  32  88 CALM      30.21R
HURON            N/A     38  36  92 SE7       30.18S FOG
CHAMBERLAIN    CLEAR     36  36 100 CALM      30.16S
MITCHELL       CLEAR     38  36  92 SE7       30.20R FOG
YANKTON        CLEAR     39  37  92 E5        30.20S
$$

ABBREVIATIONS USED IN REMARKS
   TC - TEMPERATURE IN CELSIUS
  WCI - WIND CHILL INDEX
   HX - HEAT INDEX
  VSB - VISIBILITY





USA.gov is the U.S. government's official web portal to all federal, state and local government web resources and services.